When you browse on this site, cookies collect data to enhance your experience and personalize the content and advertising you see.
Visit our Privacy Policy to learn more. By continuing to use the site, you agree to this use of cookies and data.
  • en Suisse
  • Liste des pays
  • À 7 jours
  • Température de l'eau
  • Carte météo
  • Widgets météo
  • user-avatar
    Se connecter

    Météo par heure à Newcastle

    Ce jour, 1 Juin, Lundi

    Heure Température Précipitation Vent Pression Humidité
    00:00 +13°C° 0 mm 3 m/s 760 mmHg 81%
    01:00 +12°C° 0 mm 3 m/s 760 mmHg 83%
    02:00 +12°C° 0 mm 3 m/s 759 mmHg 84%
    03:00 +12°C° 0 mm 3 m/s 759 mmHg 84%
    04:00 +12°C° 0 mm 3 m/s 758 mmHg 82%
    05:00 +13°C° 0 mm 3 m/s 758 mmHg 81%
    06:00 +13°C° 0 mm 4 m/s 758 mmHg 80%
    07:00 +13°C° 0 mm 4 m/s 758 mmHg 79%
    08:00 +15°C° 0 mm 4 m/s 758 mmHg 72%
    09:00 +18°C° 0 mm 4 m/s 757 mmHg 65%
    10:00 +21°C° 0 mm 4 m/s 757 mmHg 57%
    11:00 +21°C° 0 mm 4 m/s 756 mmHg 54%
    12:00 +22°C° 0 mm 5 m/s 755 mmHg 51%
    13:00 +23°C° 0 mm 6 m/s 754 mmHg 48%
    14:00 +22°C° 0 mm 5 m/s 755 mmHg 51%
    15:00 +21°C° 0 mm 4 m/s 755 mmHg 53%
    16:00 +20°C° 0 mm 4 m/s 755 mmHg 56%
    17:00 +19°C° 0 mm 5 m/s 756 mmHg 56%
    18:00 +16°C° 0 mm 5 m/s 756 mmHg 56%
    19:00 +15°C° 0 mm 6 m/s 757 mmHg 57%
    20:00 +13°C° 0 mm 6 m/s 758 mmHg 61%
    21:00 +11°C° 0 mm 6 m/s 758 mmHg 65%
    22:00 +10°C° 0 mm 6 m/s 759 mmHg 69%
    23:00 +9°C° 0 mm 5 m/s 759 mmHg 69%

    Demain, 2 Juin, Mardi

    Heure Température Précipitation Vent Pression Humidité
    00:00 +8°C° 0 mm 5 m/s 759 mmHg 69%
    01:00 +7°C° 0 mm 5 m/s 759 mmHg 70%
    02:00 +7°C° 0 mm 5 m/s 759 mmHg 69%
    03:00 +7°C° 0 mm 6 m/s 759 mmHg 69%
    04:00 +7°C° 0 mm 6 m/s 759 mmHg 69%
    05:00 +7°C° 0 mm 6 m/s 759 mmHg 67%
    06:00 +8°C° 0 mm 6 m/s 759 mmHg 66%
    07:00 +8°C° 0 mm 6 m/s 760 mmHg 65%
    08:00 +9°C° 0 mm 6 m/s 760 mmHg 61%
    09:00 +10°C° 0 mm 6 m/s 760 mmHg 58%
    10:00 +11°C° 0 mm 6 m/s 760 mmHg 54%
    11:00 +12°C° 1.2 mm 5 m/s 760 mmHg 65%
    12:00 +10°C° 1.2 mm 5 m/s 759 mmHg 75%
    13:00 +9°C° 1.2 mm 5 m/s 759 mmHg 85%
    14:00 +10°C° 0.2 mm 5 m/s 759 mmHg 81%
    15:00 +12°C° 0.2 mm 5 m/s 760 mmHg 76%
    16:00 +11°C° 0.2 mm 6 m/s 760 mmHg 72%
    17:00 +11°C° 0 mm 6 m/s 761 mmHg 70%
    18:00 +10°C° 0 mm 6 m/s 761 mmHg 69%
    19:00 +9°C° 0 mm 6 m/s 762 mmHg 68%
    20:00 +9°C° 0 mm 5 m/s 763 mmHg 69%
    21:00 +8°C° 0 mm 5 m/s 763 mmHg 70%
    22:00 +8°C° 0 mm 5 m/s 764 mmHg 72%
    23:00 +7°C° 0 mm 5 m/s 764 mmHg 72%

    Après-demain, 3 Juin, Mercredi

    Heure Température Précipitation Vent Pression Humidité
    00:00 +7°C° 0 mm 5 m/s 764 mmHg 73%
    01:00 +7°C° 0 mm 5 m/s 764 mmHg 74%
    02:00 +7°C° 0 mm 5 m/s 764 mmHg 76%
    03:00 +6°C° 0 mm 5 m/s 764 mmHg 77%
    04:00 +6°C° 0 mm 5 m/s 764 mmHg 79%
    05:00 +6°C° 0 mm 5 m/s 764 mmHg 80%
    06:00 +6°C° 0 mm 5 m/s 765 mmHg 82%
    07:00 +6°C° 0 mm 5 m/s 765 mmHg 84%
    08:00 +8°C° 0 mm 4 m/s 765 mmHg 78%
    09:00 +11°C° 0 mm 4 m/s 766 mmHg 71%
    10:00 +13°C° 0 mm 3 m/s 766 mmHg 65%
    11:00 +14°C° 0 mm 4 m/s 766 mmHg 62%
    12:00 +15°C° 0 mm 4 m/s 766 mmHg 58%
    13:00 +18°C° 0 mm 4 m/s 766 mmHg 54%
    14:00 +16°C° 0 mm 5 m/s 766 mmHg 59%
    15:00 +15°C° 0 mm 6 m/s 766 mmHg 63%
    16:00 +15°C° 0 mm 6 m/s 767 mmHg 67%
    17:00 +14°C° 0 mm 6 m/s 768 mmHg 69%
    18:00 +12°C° 0 mm 7 m/s 768 mmHg 70%
    19:00 +11°C° 0 mm 7 m/s 769 mmHg 72%
    20:00 +11°C° 0.1 mm 7 m/s 770 mmHg 74%
    21:00 +11°C° 0.1 mm 6 m/s 770 mmHg 76%
    22:00 +11°C° 0.1 mm 6 m/s 771 mmHg 78%
    23:00 +10°C° 0.1 mm 6 m/s 771 mmHg 80%

    4 Juin, Jeudi

    Heure Température Précipitation Vent Pression Humidité
    00:00 +10°C° 0.1 mm 6 m/s 771 mmHg 82%
    01:00 +9°C° 0.1 mm 6 m/s 771 mmHg 84%
    02:00 +10°C° 0.1 mm 5 m/s 771 mmHg 82%
    03:00 +10°C° 0.1 mm 5 m/s 771 mmHg 80%
    04:00 +10°C° 0.1 mm 5 m/s 771 mmHg 78%
    05:00 +11°C° 0.1 mm 4 m/s 771 mmHg 80%
    06:00 +10°C° 0.1 mm 4 m/s 772 mmHg 82%
    07:00 +10°C° 0.1 mm 4 m/s 772 mmHg 83%
    08:00 +11°C° 0.1 mm 4 m/s 773 mmHg 80%
    09:00 +12°C° 0.1 mm 4 m/s 773 mmHg 77%
    10:00 +13°C° 0.1 mm 4 m/s 773 mmHg 73%
    11:00 +13°C° 0.1 mm 3 m/s 773 mmHg 73%
    12:00 +13°C° 0.1 mm 3 m/s 772 mmHg 74%
    13:00 +13°C° 0.1 mm 3 m/s 772 mmHg 74%
    14:00 +13°C° 0.1 mm 3 m/s 772 mmHg 76%
    15:00 +13°C° 0.1 mm 3 m/s 772 mmHg 79%
    16:00 +14°C° 0.1 mm 2 m/s 772 mmHg 81%
    17:00 +14°C° 0.1 mm 2 m/s 772 mmHg 84%
    18:00 +13°C° 0.1 mm 2 m/s 773 mmHg 86%
    19:00 +12°C° 0.1 mm 2 m/s 773 mmHg 89%
    20:00 +12°C° 0.1 mm 2 m/s 773 mmHg 89%
    21:00 +12°C° 0.1 mm 2 m/s 773 mmHg 90%
    22:00 +12°C° 0.1 mm 2 m/s 773 mmHg 90%
    23:00 +12°C° 0.1 mm 2 m/s 773 mmHg 92%

    5 Juin, Vendredi

    Heure Température Précipitation Vent Pression Humidité
    00:00 +11°C° 0.1 mm 1 m/s 773 mmHg 94%
    01:00 +11°C° 0.1 mm 1 m/s 772 mmHg 95%
    02:00 +10°C° 0 mm 1 m/s 772 mmHg 95%
    03:00 +9°C° 0 mm 2 m/s 772 mmHg 95%
    04:00 +9°C° 0 mm 2 m/s 771 mmHg 94%
    05:00 +9°C° 0.1 mm 2 m/s 772 mmHg 94%
    06:00 +9°C° 0.1 mm 2 m/s 772 mmHg 94%
    07:00 +8°C° 0.1 mm 2 m/s 772 mmHg 94%
    08:00 +10°C° 0.1 mm 2 m/s 772 mmHg 90%
    09:00 +12°C° 0.1 mm 2 m/s 772 mmHg 86%
    10:00 +14°C° 0.1 mm 2 m/s 772 mmHg 81%
    11:00 +15°C° 0 mm 1 m/s 771 mmHg 73%
    12:00 +18°C° 0 mm 1 m/s 770 mmHg 66%
    13:00 +20°C° 0 mm 1 m/s 770 mmHg 58%
    14:00 +19°C° 0 mm 1 m/s 769 mmHg 61%
    15:00 +18°C° 0 mm 1 m/s 769 mmHg 64%
    16:00 +18°C° 0 mm 1 m/s 769 mmHg 68%
    17:00 +15°C° 0 mm 1 m/s 769 mmHg 75%
    18:00 +13°C° 0 mm 2 m/s 769 mmHg 82%
    19:00 +12°C° 0 mm 2 m/s 770 mmHg 90%
    20:00 +10°C° 0 mm 2 m/s 769 mmHg 91%
    21:00 +10°C° 0 mm 2 m/s 769 mmHg 93%
    22:00 +9°C° 0 mm 2 m/s 769 mmHg 94%
    23:00 +9°C° 0 mm 2 m/s 769 mmHg 94%

    6 Juin, Samedi

    Heure Température Précipitation Vent Pression Humidité
    00:00 +9°C° 0 mm 2 m/s 769 mmHg 94%
    01:00 +8°C° 0 mm 2 m/s 768 mmHg 94%
    02:00 +8°C° 0 mm 2 m/s 768 mmHg 94%
    03:00 +7°C° 0 mm 2 m/s 768 mmHg 94%
    04:00 +7°C° 0 mm 2 m/s 767 mmHg 94%
    05:00 +7°C° 0 mm 2 m/s 768 mmHg 93%
    06:00 +7°C° 0 mm 3 m/s 768 mmHg 93%
    07:00 +7°C° 0 mm 3 m/s 768 mmHg 93%
    08:00 +9°C° 0 mm 3 m/s 768 mmHg 83%
    09:00 +11°C° 0 mm 3 m/s 767 mmHg 73%
    10:00 +13°C° 0 mm 3 m/s 767 mmHg 62%
    11:00 +16°C° 0 mm 3 m/s 766 mmHg 58%
    12:00 +17°C° 0 mm 3 m/s 766 mmHg 53%
    13:00 +19°C° 0 mm 3 m/s 765 mmHg 48%
    14:00 +18°C° 0 mm 3 m/s 764 mmHg 51%
    15:00 +18°C° 0 mm 3 m/s 764 mmHg 55%
    16:00 +17°C° 0 mm 3 m/s 764 mmHg 58%
    17:00 +16°C° 0 mm 3 m/s 764 mmHg 62%
    18:00 +13°C° 0 mm 4 m/s 765 mmHg 66%
    19:00 +12°C° 0 mm 4 m/s 765 mmHg 70%
    20:00 +11°C° 0 mm 4 m/s 765 mmHg 71%
    21:00 +11°C° 0 mm 4 m/s 765 mmHg 73%
    22:00 +10°C° 0 mm 4 m/s 765 mmHg 74%
    23:00 +10°C° 0 mm 4 m/s 765 mmHg 75%
    Voir plus